Weather in Puzla

Russia / Komi Republic     62°25′40″N   54°39′13″E
temp.,
°C
wind,
m/s
gust,
m/s
humid.,
%
clouds,
%
prec.,
mm/h
press.,
hPa
HPBL,
m
16 april, fri
fri1600:00−2nw28855 0.0 1028289
03:00−3nw14935 0.0 1029140
06:00−3wsw119122 0.0 1031147
09:00+2w356883 0.0 10311239
12:00+3w466397 0.0 10301207
15:00+5w496595 0.1 10291546
18:00+3w397556 0.0 1027348
21:000w3118852 0.0 1027350
17 april, sat
sat1700:00+1wnw4119196 0.0 1026564
03:000wnw4118623 0.0 1026518
06:00+1wnw4108792 0.0 10261029
09:00+3w5976100 0.1 10241085
12:00+5wnw71474100 0.1 10211574
15:00+5nw71474100 0.4 10211717
18:00+3nw7158187 0.2 10201385
21:00−1nnw510695 0.9 10241133
18 april, sun
sun1800:00−3nnw511715 0.0 10261042
03:00−5n4118082 0.0 1030728
06:00−5nne48647 0.0 1033702
09:00−1nne46480 0.0 10351066
12:00+1nne35340 0.0 10361676
15:00+1nne35335 0.0 10371819
18:00−1n24493 0.0 1038115
21:00−4nne116321 0.0 103812
19 april, mon
mon1900:00−4nne11663 0.0 103912
03:00−5n006816 0.0 104010
06:00−3w1255100 0.0 1040227
09:00+1wnw23385 0.0 10401082
12:00+4w34335 0.0 10381414
15:00+4w35335 0.0 10371374
18:00+1wsw26555 0.0 1036132
21:00−2wsw286570 0.0 1036134
20 april, tue
tue2000:00−2wsw310655 0.0 1035209
03:00−2w3116726 0.0 1035251
06:00+1w3106033 0.0 1034328
09:00+6wnw47455 0.0 1033817
12:00+9wnw46435 0.0 10321164
15:00+9wnw45430 0.0 10321217
18:00+6w22610 0.0 103235
21:00+3wnw11690 0.0 103210